Weather Roundup
Issued by NWS Springfield, MO

Home | Current Version | Previous Version | Text Only | Print | Product List | Glossary On
Versions: 1 2 3 4 5 6 7 8 9 10 11 12 13 14 15 16 17 18 19 20 21 22 23 24 25 26 27 28 29 30 31 32 33 34 35 36 37 38 39 40 41 42 43 44 45 46 47 48 49 50
000
NZUS99 KSGF 281907
HRRSGF

HOURLY WEATHER
NATIONAL WEATHER SERVICE SPRINGFIELD MO
200 PM CDT WED JUN 28 2017

......SGF CWA......

CITY           SKY/WX    TMP DP  RH WIND       PRES   REMARKS
SPRINGFIELD    SUNNY     84  69  60 S20       29.93F
JOPLIN         SUNNY     88  71  57 S21G32    29.88F HX  94
WEST PLAINS    MOSUNNY   83  63  50 S16       30.01F
ROLLA          MOSUNNY   85  65  51 S17G26    29.94F
OSAGE BEACH    MOSUNNY   86  69  56 S15       29.91F HX  90
BRANSON        PTSUNNY   84  66  54 S9        29.99F

......SURROUNDING SGF CWA......

CITY           SKY/WX    TMP DP  RH WIND       PRES   REMARKS
CHANUTE        MOSUNNY   90  69  50 S21G33    29.84F HX  94
PARSONS        MOSUNNY   88  70  55 S16G24    29.86F HX  93
COFFEYVILLE    MOSUNNY   89  71  55 S21G29    29.84F HX  95
EMPORIA        SUNNY     89  70  53 S23G36    29.79F HX  94
GROVE OK       SUNNY     88  70  55 S16G26    29.90F HX  92
ROGERS AR      PTSUNNY   86  67  52 S14       29.96F
SILOAM SPRINGS PTSUNNY   84  66  54 S17G28    29.94F
HARRISON AR    MOSUNNY   85  65  51 S12       29.99F
NEAR YELLVILLE MOSUNNY   86  63  45 S7        29.95F

......KANSAS AND MISSOURI......

CITY           SKY/WX    TMP DP  RH WIND       PRES   REMARKS
KANSAS CTY INT MOSUNNY   87  71  58 SW24G36   29.78F HX  93
DOWNTOWN KC    SUNNY     89  71  55 S22G30    29.78F HX  95
COLUMBIA       SUNNY     84  69  60 S21G29    29.87F
SEDALIA        MOSUNNY   86  73  65 S17G29    29.88S HX  93
ST JOSEPH      MOSUNNY   87  73  62 S18G28    29.74F HX  94
ST LOUIS       CLOUDY    88  60  38 SW20G28   29.94F
SPIRIT OF STL  PTSUNNY   84  64  50 S14G22    29.93F
KIRKSVILLE     CLOUDY    84  71  65 S16       29.83F
WICHITA        MOSUNNY   91  68  46 S25G31    29.77F HX  95
TOPEKA         MOSUNNY   89  72  56 S15G28    29.75F HX  96
OLATHE         PTSUNNY   85  71  63 S21G30    29.81F HX  90

......TENNESSEE......

CITY           SKY/WX    TMP DP  RH WIND       PRES   REMARKS
MEMPHIS        MOSUNNY   88  66  48 S13       30.03F HX  90
NASHVILLE      MOSUNNY   87  56  34 S6        30.10F

......ARKANSAS.......

CITY           SKY/WX    TMP DP  RH WIND       PRES   REMARKS
FAYETTEVILLE   MOSUNNY   82  68  62 S13       29.97F
FT SMITH       MOSUNNY   89  68  49 S7        29.94F HX  93
LITTLE ROCK    PTSUNNY   87  68  52 S9        29.99F HX  90

......OKLAHOMA.......

CITY           SKY/WX    TMP DP  RH WIND       PRES   REMARKS
TULSA          PTSUNNY   89  71  55 S18G32    29.83F HX  95
PONCA CITY     SUNNY     92  66  42 S10G25    29.80F HX  94
MCALESTER      MOSUNNY   89  69  51 S12G18    29.93F HX  93
OKLAHOMA CITY  MOSUNNY   89  64  43 S20G31    29.86F HX  90

......IOWA............

CITY           SKY/WX    TMP DP  RH WIND       PRES   REMARKS
DES MOINES     PTSUNNY   83  69  62 SW17G31   29.70R
QUAD CITIES    CLOUDY    80  67  64 S26G36    29.79F

......ILLINOIS........

CITY           SKY/WX    TMP DP  RH WIND       PRES   REMARKS
QUINCY         MOSUNNY   84  68  58 S18G30    29.85R
CHICAGO        LGT RAIN  71  61  70 S18       29.87F



USA.gov is the U.S. government's official web portal to all federal, state and local government web resources and services.